{"data":{"norad_id":69265,"intl_designator":"2026-117AD","name":"STARLINK-37435","alt_names":[],"object_type":"PAYLOAD","status":"ACTIVE","operator":null,"country":"US","launch_date":"2026-05-29","launch_site_code":"AFETR","launch_vehicle":null,"mission":null,"orbit_class":"UNKNOWN","rcs_meters":null,"size_class":null,"mass_kg":null,"dimensions":null,"purposes":["comms"],"wikipedia_slug":null,"has_3d_model":false,"image_url":null,"decayed_at":null,"tle_current":{"epoch":"2026-09-19T23:10:37.392384Z","epoch_age_seconds":75179,"freshness":"FRESH","line1":"1 69265U 26117AD  26262.96571056  .00016836  00000+0  50823-3 0  9996","line2":"2 69265  53.1583 156.3185 0001022  82.6261 277.4858 15.34403396 17584","mean_motion":15.34403396,"eccentricity":0.0001022,"inclination_deg":53.1583,"raan_deg":156.3185,"arg_perigee_deg":82.6261,"mean_anomaly_deg":277.4858,"bstar":0.00050823,"rev_number":1758,"period_min":93.847550373904,"perigee_km":461.99401375706,"apogee_km":463.39227943903,"semimajor_km":6840.830146598,"source":"CELESTRAK","updated_at":"2026-09-20T09:00:44.153222Z"}}}